[[{"header":{"parameterUnit":"m.s-1","parameterCategory":1,"la1":30.2991,"la2":30.254,"lo1":-89.0895,"lo2":-89.0444,"dy":0.0017,"dx":0.0017,"nx":28,"ny":28,"refTime":"2024-02-02T09:00:00:Z","depth":0,"parameterNumber":2,"parameterNumberName":"U-component_of_WINDS"},"data":[0,0,0,0,0,0,0,0,0,0,0,0,0,0,0,0,0,0,0,0,0,0,0,0,0,0,0,0,0,0,0,0,0,0,0,0,0,0,0,0,0,0,0,0,0,0,0,0,0,0,0,0,0,0,0,0,0,0,0.6783,0.6783,0,0.6792,0.6792,0.6792,0.6845,0.6846,0.6847,0.6848,0.6853,0.6852,0.6851,0,0,0,0,0,0,0,0,0,0,0,0,0,0.6807,0.6806,0.6783,0.6783,0.6784,0.6792,0.6792,0.6792,0.6844,0.6846,0.6848,0.6849,0.6853,0.6852,0.6851,0,0,0,0,0,0,0,0,0,0,0,0,0,0.6804,0.6806,0.6783,0.6811,0.6813,0.6792,0.6792,0.6792,0.6844,0.6846,0.6848,0.685,0.6854,0.6852,0.685,0.6802,0,0,0.6845,0.6845,0,0,0,0,0,0,0,0,0.6804,0.6803,0.6807,0.6809,0.6812,0.6819,0.6802,0.6796,0.6844,0.6832,0.6848,0.6851,0.684,0.6839,0.6837,0.6802,0.6803,0.6845,0.6844,0.6844,0.6843,0,0,0,0,0,0,0,0.6804,0.6803,0.6787,0.6806,0.681,0.6821,0.6823,0.6801,0.6825,0.6833,0.6837,0.6838,0.6842,0.6838,0.6837,0.6803,0.6845,0.6844,0.6843,0.6842,0.6727,0.6725,0,0,0,0,0,0,0.6801,0.6803,0.6786,0.6787,0.6813,0.6819,0.6821,0.6815,0.6825,0.6829,0.6836,0.684,0.684,0.6839,0.6838,0.678,0.6844,0.6842,0.6841,0.6729,0.6727,0.6725,0,0,0,0,0,0,0.6802,0.6799,0.6786,0.6796,0.6795,0.6817,0.6809,0.6814,0.6811,0.6828,0.6832,0.6829,0.6841,0.684,0.6811,0.6781,0.6841,0.684,0.6732,0.6729,0.6726,0.6666,0,0,0,0,0,0,0.6802,0.6799,0.6782,0.6795,0.6795,0.676,0.6808,0.6813,0.6808,0.6814,0.6822,0.6825,0.6843,0.6813,0.6809,0.678,0.6839,0.6734,0.673,0.6727,0.667,0.6661,0.6653,0,0,0,0,0,0.6803,0.6764,0.6781,0.6779,0.6774,0.6758,0.6758,0.6781,0.6806,0.6788,0.6799,0.6824,0.6786,0.6809,0.6805,0.6775,0.6736,0.6732,0.6727,0.6674,0.6663,0.6653,0,0,0,0,0,0,0.6746,0.6767,0.6785,0.675,0.6752,0.6767,0.6745,0.6768,0.6762,0.6767,0.6794,0.6795,0.6761,0.6766,0.6792,0.6729,0.6765,0.676,0.6726,0.6716,0.6707,0.6705,0.6837,0,0,0,0,0,0.6729,0.6716,0.6735,0.6702,0.6702,0.6724,0.6718,0.6735,0.6738,0.6738,0.6747,0.6747,0.6735,0.6726,0.6716,0.6672,0.6673,0.665,0.6641,0.6634,0.6627,0.6603,0.6592,0.6709,0.6709,0.6709,0,0,0.6695,0.6704,0.6694,0.6691,0.6694,0.6678,0.6724,0.6705,0.6693,0.6735,0.6708,0.6714,0.6716,0.6679,0.6663,0.6681,0.6596,0.6628,0.6622,0.662,0.6597,0.6585,0.6575,0.6706,0.6706,0.6707,0,0,0.6623,0.663,0.6603,0.6606,0.6611,0.6626,0.6619,0.6631,0.6637,0.661,0.6641,0.6626,0.6605,0.6605,0.6601,0.653,0.6552,0.6526,0.6479,0.6454,0.6445,0.6437,0.6408,0.6398,0.652,0.652,0.652,0,0.6578,0.6557,0.6585,0.6565,0.6561,0.6601,0.6572,0.6573,0.6574,0.657,0.6591,0.6565,0.6569,0.6531,0.6514,0.6511,0.6502,0.6524,0.6444,0.6436,0.6429,0.6402,0.6392,0.6516,0.6517,0.6517,0.6517,0,0.6501,0.6486,0.6463,0.6464,0.6459,0.6434,0.6457,0.6447,0.6466,0.6477,0.6449,0.6455,0.6446,0.6439,0.6457,0.6403,0.6414,0.644,0.6477,0.6414,0.6389,0.6379,0.6511,0.6513,0.6514,0.6515,0,0,0.6392,0.641,0.6401,0.6401,0.641,0.6398,0.6375,0.6367,0.6357,0.6357,0.6336,0.6318,0.6341,0.6337,0.6355,0.6334,0.6273,0.6362,0.6362,0.6343,0.6212,0.6191,0.6179,0.629,0.6288,0.6287,0.6211,0,0.6322,0.6284,0.6308,0.6266,0.6251,0.6288,0.6267,0.6269,0.6279,0.6267,0.6278,0.6263,0.6297,0.6294,0.6275,0.6285,0.6247,0.6291,0.6268,0.6267,0.6264,0.6167,0.6145,0.6073,0.6202,0.62,0.6199,0,0.6234,0.6231,0.6187,0.6198,0.6192,0.6173,0.6168,0.6157,0.6159,0.6168,0.6164,0.6187,0.6162,0.6201,0.6166,0.6196,0.6188,0.6191,0.6189,0.6185,0.6227,0.6158,0.6051,0.6039,0.6185,0.6186,0.6187,0,0.6156,0.614,0.6112,0.6111,0.6124,0.6109,0.6114,0.6119,0.6112,0.6107,0.6103,0.6094,0.6089,0.6081,0.61,0.6127,0.6062,0.6103,0.6066,0.6066,0.6049,0.6049,0.5937,0.6048,0.6048,0.6049,0.6049,0,0.6073,0.6044,0.6077,0.6059,0.6027,0.6055,0.6022,0.603,0.6034,0.6017,0.6049,0.6031,0.6059,0.6044,0.6059,0.6026,0.6024,0.6029,0.6033,0.6025,0.6024,0.6018,0.6022,0.6046,0.6046,0.6047,0.6047,0,0.5979,0.6,0.5971,0.5986,0.5989,0.5964,0.5976,0.5959,0.5972,0.595,0.5946,0.5965,0.5949,0.5968,0.5954,0.5964,0.5919,0.5932,0.5918,0.5921,0.5882,0.5885,0.576,0.5744,0.5868,0.5867,0.5866,0,0.5923,0.5902,0.5915,0.5906,0.5909,0.5895,0.5889,0.5916,0.5908,0.5909,0.5891,0.5878,0.5869,0.5841,0.5852,0.5841,0.5851,0.5809,0.5849,0.5841,0.5847,0.5847,0.5844,0.5799,0.5798,0.5796,0.5796,0,0.5822,0.5833,0.5824,0.5818,0.581,0.5806,0.5805,0.5796,0.5823,0.5812,0.5797,0.579,0.5775,0.5761,0.5753,0.5755,0.5778,0.5783,0.5773,0.5763,0.5756,0.5757,0.5892,0.5785,0.5786,0.5787,0.5787,0.5788,0.5744,0.5726,0.5732,0.572,0.5722,0.572,0.5704,0.5715,0.5704,0.5695,0.5711,0.5691,0.5693,0.5684,0.5684,0.5667,0.5685,0.5672,0.5668,0.5664,0.5657,0.5761,0.5666,0.5666,0.5667,0.5667,0.5667,0,0.5642,0.5648,0.5637,0.5634,0.5624,0.565,0.5649,0.5638,0.5621,0.5622,0.5612,0.5593,0.5579,0.559,0.5578,0.5562,0.5573,0.5558,0.5558,0.5557,0.5643,0.5651,0.555,0.555,0.555,0.555,0.555,0.555,0.5587,0.5558,0.557,0.5541,0.5547,0.5529,0.5526,0.5523,0.5523,0.5501,0.5491,0.5498,0.5502,0.5491,0.5478,0.5482,0.5474,0.5455,0.5462,0.554,0.5552,0.5563,0.557,0.5454,0.5454,0.5378,0.5377,0.5377]},{"header":{"parameterUnit":"m.s-1","parameterCategory":1,"la1":30.2991,"la2":30.254,"lo1":-89.0895,"lo2":-89.0444,"dy":0.0017,"dx":0.0017,"nx":28,"ny":28,"refTime":"2024-02-02T09:00:00:Z","depth":0,"parameterNumber":3,"parameterNumberName":"V-component_of_WINDS"},"data":[0,0,0,0,0,0,0,0,0,0,0,0,0,0,0,0,0,0,0,0,0,0,0,0,0,0,0,0,0,0,0,0,0,0,0,0,0,0,0,0,0,0,0,0,0,0,0,0,0,0,0,0,0,0,0,0,0,0,-1.6933,-1.6933,0,-1.6934,-1.6934,-1.6934,-1.6918,-1.6918,-1.6918,-1.6917,-1.6918,-1.6918,-1.6919,0,0,0,0,0,0,0,0,0,0,0,0,0,-1.6919,-1.692,-1.6933,-1.6933,-1.6933,-1.6934,-1.6934,-1.6934,-1.6919,-1.6918,-1.6918,-1.6917,-1.6918,-1.6918,-1.6919,0,0,0,0,0,0,0,0,0,0,0,0,0,-1.6923,-1.692,-1.6933,-1.6926,-1.6925,-1.6934,-1.6934,-1.6934,-1.6919,-1.6918,-1.6917,-1.6917,-1.6918,-1.6918,-1.6919,-1.6935,0,0,-1.6921,-1.6921,0,0,0,0,0,0,0,0,-1.6923,-1.6924,-1.6927,-1.6926,-1.6926,-1.6925,-1.6929,-1.6934,-1.6919,-1.6921,-1.6917,-1.6917,-1.6921,-1.6921,-1.6923,-1.6935,-1.6935,-1.6921,-1.6921,-1.6921,-1.6921,0,0,0,0,0,0,0,-1.6923,-1.6924,-1.6934,-1.6927,-1.6926,-1.6922,-1.6922,-1.693,-1.6924,-1.6921,-1.692,-1.692,-1.692,-1.6922,-1.6923,-1.6935,-1.6921,-1.6921,-1.6922,-1.6922,-1.696,-1.696,0,0,0,0,0,0,-1.6923,-1.6923,-1.6933,-1.6934,-1.6923,-1.6923,-1.6923,-1.6926,-1.6924,-1.6923,-1.6921,-1.6919,-1.6921,-1.6922,-1.6922,-1.6941,-1.6921,-1.6922,-1.6922,-1.6959,-1.696,-1.696,0,0,0,0,0,0,-1.6923,-1.6925,-1.6933,-1.6928,-1.6929,-1.6924,-1.6928,-1.6926,-1.6928,-1.6924,-1.6923,-1.6923,-1.6921,-1.6922,-1.6932,-1.6941,-1.6922,-1.6923,-1.6958,-1.6959,-1.696,-1.6978,0,0,0,0,0,0,-1.6923,-1.6925,-1.6931,-1.6928,-1.6929,-1.6943,-1.6928,-1.6927,-1.6929,-1.6927,-1.6926,-1.6926,-1.692,-1.6931,-1.6932,-1.6941,-1.6923,-1.6957,-1.6959,-1.696,-1.6976,-1.6979,-1.6981,0,0,0,0,0,-1.6922,-1.6936,-1.6931,-1.6932,-1.6937,-1.6943,-1.6944,-1.6938,-1.693,-1.6936,-1.6933,-1.6926,-1.6939,-1.6932,-1.6933,-1.6943,-1.6957,-1.6958,-1.696,-1.6975,-1.6978,-1.6981,0,0,0,0,0,0,-1.6939,-1.6935,-1.693,-1.6943,-1.6943,-1.6941,-1.6948,-1.6942,-1.6945,-1.6943,-1.6935,-1.6935,-1.6946,-1.6945,-1.6937,-1.6958,-1.6947,-1.6949,-1.6958,-1.6961,-1.6964,-1.6964,-1.6924,0,0,0,0,0,-1.6944,-1.695,-1.6946,-1.6958,-1.6958,-1.6953,-1.6956,-1.6951,-1.6951,-1.6952,-1.695,-1.695,-1.6955,-1.6958,-1.6962,-1.6976,-1.6975,-1.6983,-1.6986,-1.6988,-1.6989,-1.6997,-1.7,-1.6965,-1.6965,-1.6965,0,0,-1.6955,-1.6954,-1.6958,-1.6961,-1.6961,-1.6967,-1.6954,-1.696,-1.6965,-1.6953,-1.6962,-1.6961,-1.6961,-1.6973,-1.6978,-1.6973,-1.6999,-1.699,-1.6991,-1.6992,-1.6998,-1.7002,-1.7005,-1.6966,-1.6966,-1.6966,0,0,-1.6977,-1.6977,-1.6986,-1.6987,-1.6987,-1.6983,-1.6985,-1.6983,-1.6982,-1.6991,-1.6982,-1.6987,-1.6995,-1.6995,-1.6997,-1.7019,-1.7012,-1.7021,-1.7034,-1.7041,-1.7044,-1.7046,-1.7054,-1.7057,-1.7022,-1.7022,-1.7022,0,-1.6991,-1.6999,-1.6992,-1.7,-1.7001,-1.6991,-1.7,-1.7001,-1.7002,-1.7003,-1.6997,-1.7006,-1.7006,-1.7018,-1.7023,-1.7025,-1.7027,-1.7021,-1.7044,-1.7047,-1.7049,-1.7056,-1.7059,-1.7023,-1.7023,-1.7023,-1.7023,0,-1.7015,-1.7021,-1.7029,-1.703,-1.7033,-1.7041,-1.7036,-1.7039,-1.7034,-1.7031,-1.704,-1.7039,-1.7043,-1.7045,-1.704,-1.7056,-1.7053,-1.7046,-1.7034,-1.7053,-1.706,-1.7063,-1.7025,-1.7024,-1.7024,-1.7024,0,0,-1.7049,-1.7046,-1.7049,-1.7049,-1.7048,-1.7052,-1.706,-1.7063,-1.7066,-1.7068,-1.7074,-1.7081,-1.7074,-1.7075,-1.707,-1.7077,-1.7094,-1.7068,-1.7068,-1.7073,-1.7111,-1.7117,-1.712,-1.7089,-1.709,-1.709,-1.7111,0,-1.707,-1.7083,-1.7077,-1.7091,-1.7096,-1.7086,-1.7093,-1.7093,-1.709,-1.7094,-1.7091,-1.7096,-1.7087,-1.7088,-1.7093,-1.7091,-1.7101,-1.7089,-1.7095,-1.7095,-1.7095,-1.7123,-1.7129,-1.7149,-1.7114,-1.7114,-1.7114,0,-1.7097,-1.7099,-1.7114,-1.7111,-1.7113,-1.7119,-1.7122,-1.7126,-1.7125,-1.7123,-1.7125,-1.7118,-1.7126,-1.7115,-1.7125,-1.7116,-1.7118,-1.7117,-1.7118,-1.7118,-1.7106,-1.7124,-1.7155,-1.7158,-1.7119,-1.7118,-1.7118,0,-1.712,-1.7126,-1.7135,-1.7136,-1.7134,-1.7138,-1.7137,-1.7137,-1.7139,-1.7141,-1.7142,-1.7145,-1.7146,-1.7149,-1.7143,-1.7136,-1.7154,-1.7142,-1.7152,-1.7152,-1.7156,-1.7156,-1.7188,-1.7158,-1.7158,-1.7158,-1.7158,0,-1.7145,-1.7154,-1.7146,-1.7151,-1.7161,-1.7154,-1.7164,-1.7162,-1.7161,-1.7166,-1.7157,-1.7162,-1.7155,-1.7159,-1.7155,-1.7164,-1.7164,-1.7163,-1.7161,-1.7163,-1.7164,-1.7165,-1.7163,-1.7159,-1.7158,-1.7158,-1.7158,0,-1.7172,-1.7167,-1.7176,-1.7173,-1.7172,-1.7179,-1.7176,-1.7182,-1.7178,-1.7185,-1.7186,-1.7181,-1.7185,-1.718,-1.7184,-1.7181,-1.7193,-1.719,-1.7193,-1.7192,-1.7202,-1.7201,-1.7235,-1.7239,-1.7207,-1.7207,-1.7208,0,-1.7188,-1.7195,-1.7192,-1.7195,-1.7194,-1.7199,-1.7201,-1.7194,-1.7196,-1.7196,-1.7201,-1.7205,-1.7207,-1.7215,-1.7212,-1.7215,-1.7211,-1.7223,-1.7212,-1.7213,-1.7211,-1.7211,-1.7212,-1.7226,-1.7226,-1.7226,-1.7226,0,-1.7217,-1.7214,-1.7217,-1.722,-1.7222,-1.7224,-1.7224,-1.7227,-1.722,-1.7223,-1.7227,-1.7229,-1.7233,-1.7237,-1.7239,-1.7238,-1.7231,-1.723,-1.7232,-1.7235,-1.7236,-1.7235,-1.7199,-1.7229,-1.7229,-1.7229,-1.7229,-1.7229,-1.724,-1.7245,-1.7244,-1.7247,-1.7247,-1.7248,-1.7252,-1.7249,-1.7252,-1.7255,-1.7251,-1.7256,-1.7255,-1.7257,-1.7257,-1.7261,-1.7256,-1.726,-1.726,-1.7261,-1.7263,-1.7235,-1.7261,-1.7261,-1.7261,-1.7261,-1.7261,0,-1.7268,-1.7267,-1.727,-1.7271,-1.7274,-1.7267,-1.7267,-1.727,-1.7275,-1.7275,-1.7277,-1.7282,-1.7285,-1.7282,-1.7285,-1.7289,-1.7286,-1.729,-1.7289,-1.7289,-1.7267,-1.7265,-1.7292,-1.7292,-1.7292,-1.7292,-1.7292,-1.7292,-1.7284,-1.7292,-1.7289,-1.7297,-1.7295,-1.73,-1.7301,-1.7302,-1.7301,-1.7307,-1.731,-1.7307,-1.7306,-1.7308,-1.7311,-1.731,-1.7311,-1.7317,-1.7315,-1.7294,-1.7291,-1.7288,-1.7286,-1.7317,-1.7317,-1.7336,-1.7336,-1.7337]}]]